Year,Month,Day,Hour,Minute,Value (Times are PST for temperature in C)
2013,05,03,00,00,8.20
2013,05,03,00,01,8.10
2013,05,03,00,02,8.10
2013,05,03,00,03,8.10
2013,05,03,00,04,8.00
2013,05,03,00,05,8.00
2013,05,03,00,06,8.00
2013,05,03,00,07,8.00
2013,05,03,00,08,8.00
2013,05,03,00,09,8.00
2013,05,03,00,10,7.90
2013,05,03,00,11,7.90
2013,05,03,00,12,7.90
2013,05,03,00,13,7.90
2013,05,03,00,14,7.90
2013,05,03,00,15,7.90
2013,05,03,00,16,7.90
2013,05,03,00,17,7.90
2013,05,03,00,18,7.90
2013,05,03,00,19,7.80
2013,05,03,00,20,7.80
2013,05,03,00,21,7.80
2013,05,03,00,22,7.80
2013,05,03,00,23,7.80
2013,05,03,00,24,7.80
2013,05,03,00,25,7.80
2013,05,03,00,26,7.70
2013,05,03,00,27,7.70
2013,05,03,00,28,7.70
2013,05,03,00,29,7.70
2013,05,03,00,30,7.70
2013,05,03,00,31,7.70
2013,05,03,00,32,7.60
2013,05,03,00,33,7.60
2013,05,03,00,34,7.60
2013,05,03,00,35,7.60
2013,05,03,00,36,7.50
2013,05,03,00,37,7.50
2013,05,03,00,38,7.50
2013,05,03,00,39,7.50
2013,05,03,00,40,7.40
2013,05,03,00,41,7.40
2013,05,03,00,42,7.40
2013,05,03,00,43,7.30
2013,05,03,00,44,7.30
2013,05,03,00,45,7.30
2013,05,03,00,46,7.30
2013,05,03,00,47,7.30
2013,05,03,00,48,7.30
2013,05,03,00,49,7.30
2013,05,03,00,50,7.30
2013,05,03,00,51,7.30
2013,05,03,00,52,7.30
2013,05,03,00,53,7.30
2013,05,03,00,54,7.30
2013,05,03,00,55,7.30
2013,05,03,00,56,7.30
2013,05,03,00,57,7.30
2013,05,03,00,58,7.30
2013,05,03,00,59,7.30
2013,05,03,01,00,7.30
2013,05,03,01,01,7.30
2013,05,03,01,02,7.30
2013,05,03,01,03,7.30
2013,05,03,01,04,7.20
2013,05,03,01,05,7.20
2013,05,03,01,06,7.20
2013,05,03,01,07,7.20
2013,05,03,01,08,7.20
2013,05,03,01,09,7.20
2013,05,03,01,10,7.20
2013,05,03,01,11,7.20
2013,05,03,01,12,7.20
2013,05,03,01,13,7.20
2013,05,03,01,14,7.20
2013,05,03,01,15,7.10
2013,05,03,01,16,7.10
2013,05,03,01,17,7.10
2013,05,03,01,18,7.10
2013,05,03,01,19,7.10
2013,05,03,01,20,7.10
2013,05,03,01,21,7.10
2013,05,03,01,22,7.10
2013,05,03,01,23,7.10
2013,05,03,01,24,7.10
2013,05,03,01,25,7.10
2013,05,03,01,26,7.10
2013,05,03,01,27,7.10
2013,05,03,01,28,7.10
2013,05,03,01,29,7.10
2013,05,03,01,30,7.10
2013,05,03,01,31,7.10
2013,05,03,01,32,7.10
2013,05,03,01,33,7.10
2013,05,03,01,34,7.10
2013,05,03,01,35,7.10
2013,05,03,01,36,7.10
2013,05,03,01,37,7.10
2013,05,03,01,38,7.10
2013,05,03,01,39,7.10
2013,05,03,01,40,7.10
2013,05,03,01,41,7.10
2013,05,03,01,42,7.10
2013,05,03,01,43,7.00
2013,05,03,01,44,7.00
2013,05,03,01,45,7.00
2013,05,03,01,46,7.00
2013,05,03,01,47,7.00
2013,05,03,01,48,7.00
2013,05,03,01,49,7.00
2013,05,03,01,50,6.90
2013,05,03,01,51,6.90
2013,05,03,01,52,6.90
2013,05,03,01,53,6.90
2013,05,03,01,54,6.90
2013,05,03,01,55,6.90
2013,05,03,01,56,6.80
2013,05,03,01,57,6.80
2013,05,03,01,58,6.80
2013,05,03,01,59,6.80
2013,05,03,02,00,6.80
2013,05,03,02,01,6.80
2013,05,03,02,02,6.80
2013,05,03,02,03,6.80
2013,05,03,02,04,6.80
2013,05,03,02,05,6.80
2013,05,03,02,06,6.80
2013,05,03,02,07,6.80
2013,05,03,02,08,6.80
2013,05,03,02,09,6.80
2013,05,03,02,10,6.80
2013,05,03,02,11,6.80
2013,05,03,02,12,6.80
2013,05,03,02,13,6.70
2013,05,03,02,14,6.70
2013,05,03,02,15,6.70
2013,05,03,02,16,6.70
2013,05,03,02,17,6.70
2013,05,03,02,18,6.70
2013,05,03,02,19,6.60
2013,05,03,02,20,6.60
2013,05,03,02,21,6.60
2013,05,03,02,22,6.60
2013,05,03,02,23,6.60
2013,05,03,02,24,6.60
2013,05,03,02,25,6.60
2013,05,03,02,26,6.60
2013,05,03,02,27,6.60
2013,05,03,02,28,6.60
2013,05,03,02,29,6.60
2013,05,03,02,30,6.50
2013,05,03,02,31,6.40
2013,05,03,02,32,6.40
2013,05,03,02,33,6.40
2013,05,03,02,34,6.40
2013,05,03,02,35,6.40
2013,05,03,02,36,6.40
2013,05,03,02,37,6.40
2013,05,03,02,38,6.40
2013,05,03,02,39,6.40
2013,05,03,02,40,6.40
2013,05,03,02,41,6.40
2013,05,03,02,42,6.30
2013,05,03,02,43,6.30
2013,05,03,02,44,6.30
2013,05,03,02,45,6.30
2013,05,03,02,46,6.30
2013,05,03,02,47,6.30
2013,05,03,02,48,6.30
2013,05,03,02,49,6.30
2013,05,03,02,50,6.20
2013,05,03,02,51,6.20
2013,05,03,02,52,6.20
2013,05,03,02,53,6.20
2013,05,03,02,54,6.20
2013,05,03,02,55,6.20
2013,05,03,02,56,6.20
2013,05,03,02,57,6.20
2013,05,03,02,58,6.20
2013,05,03,02,59,6.20
2013,05,03,03,00,6.20
2013,05,03,03,01,6.20
2013,05,03,03,02,6.20
2013,05,03,03,03,6.10
2013,05,03,03,04,6.10
2013,05,03,03,05,6.10
2013,05,03,03,06,6.10
2013,05,03,03,07,6.10
2013,05,03,03,08,6.10
2013,05,03,03,09,6.10
2013,05,03,03,10,6.10
2013,05,03,03,11,6.00
2013,05,03,03,12,6.00
2013,05,03,03,13,6.00
2013,05,03,03,14,6.00
2013,05,03,03,15,6.00
2013,05,03,03,16,6.00
2013,05,03,03,17,6.00
2013,05,03,03,18,6.00
2013,05,03,03,19,5.90
2013,05,03,03,20,5.90
2013,05,03,03,21,5.90
2013,05,03,03,22,5.90
2013,05,03,03,23,5.90
2013,05,03,03,24,5.90
2013,05,03,03,25,5.90
2013,05,03,03,26,5.90
2013,05,03,03,27,5.90
2013,05,03,03,28,5.80
2013,05,03,03,29,5.80
2013,05,03,03,30,5.80
2013,05,03,03,31,5.80
2013,05,03,03,32,5.80
2013,05,03,03,33,5.80
2013,05,03,03,34,5.80
2013,05,03,03,35,5.80
2013,05,03,03,36,5.80
2013,05,03,03,37,5.80
2013,05,03,03,38,5.80
2013,05,03,03,39,5.80
2013,05,03,03,40,5.80
2013,05,03,03,41,5.80
2013,05,03,03,42,5.80
2013,05,03,03,43,5.70
2013,05,03,03,44,5.70
2013,05,03,03,45,5.70
2013,05,03,03,46,5.70
2013,05,03,03,47,5.70
2013,05,03,03,48,5.70
2013,05,03,03,49,5.70
2013,05,03,03,50,5.70
2013,05,03,03,51,5.70
2013,05,03,03,52,5.70
2013,05,03,03,53,5.70
2013,05,03,03,54,5.70
2013,05,03,03,55,5.70
2013,05,03,03,56,5.70
2013,05,03,03,57,5.70
2013,05,03,03,58,5.70
2013,05,03,03,59,5.70
2013,05,03,04,00,5.70
2013,05,03,04,01,5.70
2013,05,03,04,02,5.60
2013,05,03,04,03,5.60
2013,05,03,04,04,5.60
2013,05,03,04,05,5.60
2013,05,03,04,06,5.60
2013,05,03,04,07,5.70
2013,05,03,04,08,5.70
2013,05,03,04,09,5.60
2013,05,03,04,10,5.60
2013,05,03,04,11,5.60
2013,05,03,04,12,5.60
2013,05,03,04,13,5.60
2013,05,03,04,14,5.60
2013,05,03,04,15,5.60
2013,05,03,04,16,5.60
2013,05,03,04,17,5.60
2013,05,03,04,18,5.60
2013,05,03,04,19,5.60
2013,05,03,04,20,5.60
2013,05,03,04,21,5.60
2013,05,03,04,22,5.60
2013,05,03,04,23,5.60
2013,05,03,04,24,5.60
2013,05,03,04,25,5.60
2013,05,03,04,26,5.60
2013,05,03,04,27,5.60
2013,05,03,04,28,5.60
2013,05,03,04,29,5.60
2013,05,03,04,30,5.60
2013,05,03,04,31,5.60
2013,05,03,04,32,5.60
2013,05,03,04,33,5.60
2013,05,03,04,34,5.60
2013,05,03,04,35,5.50
2013,05,03,04,36,5.50
2013,05,03,04,37,5.50
2013,05,03,04,38,5.50
2013,05,03,04,39,5.50
2013,05,03,04,40,5.50
2013,05,03,04,41,5.50
2013,05,03,04,42,5.50
2013,05,03,04,43,5.50
2013,05,03,04,44,5.50
2013,05,03,04,45,5.50
2013,05,03,04,46,5.40
2013,05,03,04,47,5.40
2013,05,03,04,48,5.40
2013,05,03,04,49,5.40
2013,05,03,04,50,5.40
2013,05,03,04,51,5.40
2013,05,03,04,52,5.40
2013,05,03,04,53,5.40
2013,05,03,04,54,5.40
2013,05,03,04,55,5.40
2013,05,03,04,56,5.40
2013,05,03,04,57,5.40
2013,05,03,04,58,5.40
2013,05,03,04,59,5.40
2013,05,03,05,00,5.30
2013,05,03,05,01,5.30
2013,05,03,05,02,5.30
2013,05,03,05,03,5.30
2013,05,03,05,04,5.30
2013,05,03,05,05,5.30
2013,05,03,05,06,5.30
2013,05,03,05,07,5.30
2013,05,03,05,08,5.30
2013,05,03,05,09,5.30
2013,05,03,05,10,5.20
2013,05,03,05,11,5.20
2013,05,03,05,12,5.20
2013,05,03,05,13,5.20
2013,05,03,05,14,5.20
2013,05,03,05,15,5.20
2013,05,03,05,16,5.20
2013,05,03,05,17,5.20
2013,05,03,05,18,5.20
2013,05,03,05,19,5.10
2013,05,03,05,20,5.10
2013,05,03,05,21,5.10
2013,05,03,05,22,5.10
2013,05,03,05,23,5.10
2013,05,03,05,24,5.10
2013,05,03,05,25,5.10
2013,05,03,05,26,5.10
2013,05,03,05,27,5.10
2013,05,03,05,28,5.10
2013,05,03,05,29,5.10
2013,05,03,05,30,5.10
2013,05,03,05,31,5.10
2013,05,03,05,32,5.10
2013,05,03,05,33,5.10
2013,05,03,05,34,5.10
2013,05,03,05,35,5.10
2013,05,03,05,36,5.10
2013,05,03,05,37,5.10
2013,05,03,05,38,5.10
2013,05,03,05,39,5.10
2013,05,03,05,40,5.10
2013,05,03,05,41,5.10
2013,05,03,05,42,5.10
2013,05,03,05,43,5.10
2013,05,03,05,44,5.10
2013,05,03,05,45,5.10
2013,05,03,05,46,5.10
2013,05,03,05,47,5.10
2013,05,03,05,48,5.10
2013,05,03,05,49,5.10
2013,05,03,05,50,5.10
2013,05,03,05,51,5.10
2013,05,03,05,52,5.10
2013,05,03,05,53,5.10
2013,05,03,05,54,5.10
2013,05,03,05,55,5.10
2013,05,03,05,56,5.10
2013,05,03,05,57,5.10
2013,05,03,05,58,5.10
2013,05,03,05,59,5.10
2013,05,03,06,00,5.10
2013,05,03,06,01,5.10
2013,05,03,06,02,5.10
2013,05,03,06,03,5.10
2013,05,03,06,04,5.10
2013,05,03,06,05,5.10
2013,05,03,06,06,5.10
2013,05,03,06,07,5.10
2013,05,03,06,08,5.10
2013,05,03,06,09,5.10
2013,05,03,06,10,5.10
2013,05,03,06,11,5.10
2013,05,03,06,12,5.10
2013,05,03,06,13,5.10
2013,05,03,06,14,5.10
2013,05,03,06,15,5.10
2013,05,03,06,16,5.10
2013,05,03,06,17,5.10
2013,05,03,06,18,5.10
2013,05,03,06,19,5.10
2013,05,03,06,20,5.10
2013,05,03,06,21,5.10
2013,05,03,06,22,5.10
2013,05,03,06,23,5.10
2013,05,03,06,24,5.10
2013,05,03,06,25,5.10
2013,05,03,06,26,5.20
2013,05,03,06,27,5.20
2013,05,03,06,28,5.30
2013,05,03,06,29,5.30
2013,05,03,06,30,5.30
2013,05,03,06,31,5.30
2013,05,03,06,32,5.30
2013,05,03,06,33,5.30
2013,05,03,06,34,5.40
2013,05,03,06,35,5.40
2013,05,03,06,36,5.40
2013,05,03,06,37,5.40
2013,05,03,06,38,5.50
2013,05,03,06,39,5.50
2013,05,03,06,40,5.50
2013,05,03,06,41,5.50
2013,05,03,06,42,5.60
2013,05,03,06,43,5.60
2013,05,03,06,44,5.70
2013,05,03,06,45,5.70
2013,05,03,06,46,5.70
2013,05,03,06,47,5.70
2013,05,03,06,48,5.70
2013,05,03,06,49,5.80
2013,05,03,06,50,5.80
2013,05,03,06,51,5.90
2013,05,03,06,52,5.90
2013,05,03,06,53,6.00
2013,05,03,06,54,6.10
2013,05,03,06,55,6.20
2013,05,03,06,56,6.20
2013,05,03,06,57,6.30
2013,05,03,06,58,6.30
2013,05,03,06,59,6.40
2013,05,03,07,00,6.50
2013,05,03,07,01,6.60
2013,05,03,07,02,6.60
2013,05,03,07,03,6.60
2013,05,03,07,04,6.70
2013,05,03,07,05,6.70
2013,05,03,07,06,6.80
2013,05,03,07,07,6.80
2013,05,03,07,08,6.90
2013,05,03,07,09,7.00
2013,05,03,07,10,7.10
2013,05,03,07,11,7.20
2013,05,03,07,12,7.30
2013,05,03,07,13,7.30
2013,05,03,07,14,7.40
2013,05,03,07,15,7.50
2013,05,03,07,16,7.60
2013,05,03,07,17,7.60
2013,05,03,07,18,7.70
2013,05,03,07,19,7.80
2013,05,03,07,20,7.80
2013,05,03,07,21,7.90
2013,05,03,07,22,8.00
2013,05,03,07,23,8.00
2013,05,03,07,24,8.10
2013,05,03,07,25,8.20
2013,05,03,07,26,8.30
2013,05,03,07,27,8.40
2013,05,03,07,28,8.50
2013,05,03,07,29,8.60
2013,05,03,07,30,8.70
2013,05,03,07,31,8.80
2013,05,03,07,32,8.90
2013,05,03,07,33,9.00
2013,05,03,07,34,9.10
2013,05,03,07,35,9.20
2013,05,03,07,36,9.30
2013,05,03,07,37,9.40
2013,05,03,07,38,9.50
2013,05,03,07,39,9.50
2013,05,03,07,40,9.70
2013,05,03,07,41,9.70
2013,05,03,07,42,9.80
2013,05,03,07,43,10.00
2013,05,03,07,44,10.10
2013,05,03,07,45,10.20
2013,05,03,07,46,10.40
2013,05,03,07,47,10.50
2013,05,03,07,48,10.70
2013,05,03,07,49,10.80
2013,05,03,07,50,10.90
2013,05,03,07,51,10.90
2013,05,03,07,52,11.10
2013,05,03,07,53,11.10
2013,05,03,07,54,11.20
2013,05,03,07,55,11.30
2013,05,03,07,56,11.40
2013,05,03,07,57,11.50
2013,05,03,07,58,11.60
2013,05,03,07,59,11.60
2013,05,03,08,00,11.70
2013,05,03,08,01,11.80
2013,05,03,08,02,11.80
2013,05,03,08,03,12.00
2013,05,03,08,04,12.10
2013,05,03,08,05,12.20
2013,05,03,08,06,12.30
2013,05,03,08,07,12.40
2013,05,03,08,08,12.50
2013,05,03,08,09,12.60
2013,05,03,08,10,12.60
2013,05,03,08,11,12.70
2013,05,03,08,12,12.80
2013,05,03,08,13,12.80
2013,05,03,08,14,12.80
2013,05,03,08,15,12.90
2013,05,03,08,16,12.90
2013,05,03,08,17,13.00
2013,05,03,08,18,13.10
2013,05,03,08,19,13.10
2013,05,03,08,20,13.20
2013,05,03,08,21,13.30
2013,05,03,08,22,13.30
2013,05,03,08,23,13.40
2013,05,03,08,24,13.50
2013,05,03,08,25,13.60
2013,05,03,08,26,13.70
2013,05,03,08,27,13.70
2013,05,03,08,28,13.70
2013,05,03,08,29,13.80
2013,05,03,08,30,13.80
2013,05,03,08,31,13.90
2013,05,03,08,32,13.90
2013,05,03,08,33,13.90
2013,05,03,08,34,13.90
2013,05,03,08,35,13.80
2013,05,03,08,36,13.80
2013,05,03,08,37,13.80
2013,05,03,08,38,13.80
2013,05,03,08,39,13.80
2013,05,03,08,40,13.80
2013,05,03,08,41,13.80
2013,05,03,08,42,13.70
2013,05,03,08,43,13.70
2013,05,03,08,44,13.70
2013,05,03,08,45,13.70
2013,05,03,08,46,13.70
2013,05,03,08,47,13.70
2013,05,03,08,48,13.80
2013,05,03,08,49,13.80
2013,05,03,08,50,13.90
2013,05,03,08,51,13.90
2013,05,03,08,52,13.90
2013,05,03,08,53,13.90
2013,05,03,08,54,13.90
2013,05,03,08,55,14.00
2013,05,03,08,56,14.10
2013,05,03,08,57,14.20
2013,05,03,08,58,14.20
2013,05,03,08,59,14.30
2013,05,03,09,00,14.40
2013,05,03,09,01,14.40
2013,05,03,09,02,14.40
2013,05,03,09,03,14.40
2013,05,03,09,04,14.50
2013,05,03,09,05,14.50
2013,05,03,09,06,14.60
2013,05,03,09,07,14.50
2013,05,03,09,08,14.50
2013,05,03,09,09,14.50
2013,05,03,09,10,14.50
2013,05,03,09,11,14.50
2013,05,03,09,12,14.50
2013,05,03,09,13,14.50
2013,05,03,09,14,14.50
2013,05,03,09,15,14.60
2013,05,03,09,16,14.60
2013,05,03,09,17,14.70
2013,05,03,09,18,14.70
2013,05,03,09,19,14.80
2013,05,03,09,20,14.80
2013,05,03,09,21,14.80
2013,05,03,09,22,14.80
2013,05,03,09,23,14.80
2013,05,03,09,24,14.80
2013,05,03,09,25,14.80
2013,05,03,09,26,14.80
2013,05,03,09,27,14.80
2013,05,03,09,28,14.70
2013,05,03,09,29,14.70
2013,05,03,09,30,14.70
2013,05,03,09,31,14.80
2013,05,03,09,32,14.80
2013,05,03,09,33,14.80
2013,05,03,09,34,14.90
2013,05,03,09,35,14.90
2013,05,03,09,36,14.90
2013,05,03,09,37,14.90
2013,05,03,09,38,15.00
2013,05,03,09,39,15.00
2013,05,03,09,40,15.00
2013,05,03,09,41,15.00
2013,05,03,09,42,15.00
2013,05,03,09,43,15.10
2013,05,03,09,44,15.20
2013,05,03,09,45,15.30
2013,05,03,09,46,15.30
2013,05,03,09,47,15.30
2013,05,03,09,48,15.30
2013,05,03,09,49,15.30
2013,05,03,09,50,15.30
2013,05,03,09,51,15.30
2013,05,03,09,52,15.30
2013,05,03,09,53,15.30
2013,05,03,09,54,15.30
2013,05,03,09,55,15.30
2013,05,03,09,56,15.40
2013,05,03,09,57,15.50
2013,05,03,09,58,15.60
2013,05,03,09,59,15.60
2013,05,03,10,00,15.60
2013,05,03,10,01,15.40
2013,05,03,10,02,15.30
2013,05,03,10,03,15.20
2013,05,03,10,04,15.10
2013,05,03,10,05,15.00
2013,05,03,10,06,14.90
2013,05,03,10,07,14.80
2013,05,03,10,08,14.80
2013,05,03,10,09,14.80
2013,05,03,10,10,14.80
2013,05,03,10,11,14.80
2013,05,03,10,12,14.80
2013,05,03,10,13,14.80
2013,05,03,10,14,14.90
2013,05,03,10,15,15.00
2013,05,03,10,16,15.10
2013,05,03,10,17,15.10
2013,05,03,10,18,15.10
2013,05,03,10,19,15.10
2013,05,03,10,20,15.20
2013,05,03,10,21,15.20
2013,05,03,10,22,15.20
2013,05,03,10,23,15.10
2013,05,03,10,24,15.00
2013,05,03,10,25,14.90
2013,05,03,10,26,14.80
2013,05,03,10,27,14.80
2013,05,03,10,28,14.90
2013,05,03,10,29,15.00
2013,05,03,10,30,15.10
2013,05,03,10,31,15.20
2013,05,03,10,32,15.30
2013,05,03,10,33,15.40
2013,05,03,10,34,15.50
2013,05,03,10,35,15.60
2013,05,03,10,36,15.60
2013,05,03,10,37,15.60
2013,05,03,10,38,15.70
2013,05,03,10,39,15.70
2013,05,03,10,40,15.80
2013,05,03,10,41,15.70
2013,05,03,10,42,15.70
2013,05,03,10,43,15.70
2013,05,03,10,44,15.70
2013,05,03,10,45,15.70
2013,05,03,10,46,15.50
2013,05,03,10,47,15.40
2013,05,03,10,48,15.40
2013,05,03,10,49,15.50
2013,05,03,10,50,15.50
2013,05,03,10,51,15.50
2013,05,03,10,52,15.50
2013,05,03,10,53,15.50
2013,05,03,10,54,15.70
2013,05,03,10,55,15.70
2013,05,03,10,56,15.70
2013,05,03,10,57,15.70
2013,05,03,10,58,15.60
2013,05,03,10,59,15.50
2013,05,03,11,00,15.60
2013,05,03,11,01,15.60
2013,05,03,11,02,15.60
2013,05,03,11,03,15.60
2013,05,03,11,04,15.60
2013,05,03,11,05,15.60
2013,05,03,11,06,15.50
2013,05,03,11,07,15.50
2013,05,03,11,08,15.50
2013,05,03,11,09,15.40
2013,05,03,11,10,15.40
2013,05,03,11,11,15.40
2013,05,03,11,12,15.40
2013,05,03,11,13,15.50
2013,05,03,11,14,15.40
2013,05,03,11,15,15.40
2013,05,03,11,16,15.40
2013,05,03,11,17,15.30
2013,05,03,11,18,15.30
2013,05,03,11,19,15.30
2013,05,03,11,20,15.30
2013,05,03,11,21,15.30
2013,05,03,11,22,15.30
2013,05,03,11,23,15.30
2013,05,03,11,24,15.40
2013,05,03,11,25,15.50
2013,05,03,11,26,15.60
2013,05,03,11,27,15.60
2013,05,03,11,28,15.60
2013,05,03,11,29,15.70
2013,05,03,11,30,15.70
2013,05,03,11,31,15.70
2013,05,03,11,32,15.60
2013,05,03,11,33,15.60
2013,05,03,11,34,15.70
2013,05,03,11,35,15.70
2013,05,03,11,36,15.60
2013,05,03,11,37,15.60
2013,05,03,11,38,15.60
2013,05,03,11,39,15.70
2013,05,03,11,40,15.80
2013,05,03,11,41,15.80
2013,05,03,11,42,15.90
2013,05,03,11,43,15.80
2013,05,03,11,44,15.80
2013,05,03,11,45,15.90
2013,05,03,11,46,16.10
2013,05,03,11,47,16.20
2013,05,03,11,48,16.30
2013,05,03,11,49,16.40
2013,05,03,11,50,16.40
2013,05,03,11,51,16.40
2013,05,03,11,52,16.50
2013,05,03,11,53,16.60
2013,05,03,11,54,16.70
2013,05,03,11,55,16.80
2013,05,03,11,56,16.80
2013,05,03,11,57,16.70
2013,05,03,11,58,16.70
2013,05,03,11,59,16.70
2013,05,03,12,00,16.60
2013,05,03,12,01,16.50
2013,05,03,12,02,16.60
2013,05,03,12,03,16.70
2013,05,03,12,04,16.60
2013,05,03,12,05,16.40
2013,05,03,12,06,16.40
2013,05,03,12,07,16.30
2013,05,03,12,08,16.20
2013,05,03,12,09,16.20
2013,05,03,12,10,16.30
2013,05,03,12,11,16.30
2013,05,03,12,12,16.30
2013,05,03,12,13,16.40
2013,05,03,12,14,16.40
2013,05,03,12,15,16.40
2013,05,03,12,16,16.40
2013,05,03,12,17,16.40
2013,05,03,12,18,16.30
2013,05,03,12,19,16.30
2013,05,03,12,20,16.20
2013,05,03,12,21,16.00
2013,05,03,12,22,15.90
2013,05,03,12,23,15.80
2013,05,03,12,24,15.80
2013,05,03,12,25,15.80
2013,05,03,12,26,15.90
2013,05,03,12,27,16.00
2013,05,03,12,28,16.10
2013,05,03,12,29,16.10
2013,05,03,12,30,16.10
2013,05,03,12,31,16.10
2013,05,03,12,32,16.10
2013,05,03,12,33,16.30
2013,05,03,12,34,16.40
2013,05,03,12,35,16.40
2013,05,03,12,36,16.40
2013,05,03,12,37,16.30
2013,05,03,12,38,16.30
2013,05,03,12,39,16.30
2013,05,03,12,40,16.30
2013,05,03,12,41,16.30
2013,05,03,12,42,16.30
2013,05,03,12,43,16.30
2013,05,03,12,44,16.40
2013,05,03,12,45,16.40
2013,05,03,12,46,16.60
2013,05,03,12,47,16.60
2013,05,03,12,48,16.70
2013,05,03,12,49,16.70
2013,05,03,12,50,16.70
2013,05,03,12,51,16.70
2013,05,03,12,52,16.50
2013,05,03,12,53,16.40
2013,05,03,12,54,16.50
2013,05,03,12,55,16.40
2013,05,03,12,56,16.40
2013,05,03,12,57,16.30
2013,05,03,12,58,16.20
2013,05,03,12,59,15.90
2013,05,03,13,00,15.70
2013,05,03,13,01,15.60
2013,05,03,13,02,15.60
2013,05,03,13,03,15.60
2013,05,03,13,04,15.50
2013,05,03,13,05,15.50
2013,05,03,13,06,15.50
2013,05,03,13,07,15.50
2013,05,03,13,08,15.50
2013,05,03,13,09,15.50
2013,05,03,13,10,15.50
2013,05,03,13,11,15.70
2013,05,03,13,12,15.80
2013,05,03,13,13,15.90
2013,05,03,13,14,16.00
2013,05,03,13,15,16.10
2013,05,03,13,16,16.00
2013,05,03,13,17,15.80
2013,05,03,13,18,15.80
2013,05,03,13,19,15.80
2013,05,03,13,20,15.90
2013,05,03,13,21,16.10
2013,05,03,13,22,16.20
2013,05,03,13,23,16.40
2013,05,03,13,24,16.30
2013,05,03,13,25,16.30
2013,05,03,13,26,16.30
2013,05,03,13,27,16.40
2013,05,03,13,28,16.40
2013,05,03,13,29,16.40
2013,05,03,13,30,16.40
2013,05,03,13,31,16.40
2013,05,03,13,32,16.40
2013,05,03,13,33,16.40
2013,05,03,13,34,16.40
2013,05,03,13,35,16.40
2013,05,03,13,36,16.40
2013,05,03,13,37,16.60
2013,05,03,13,38,16.70
2013,05,03,13,39,16.70
2013,05,03,13,40,16.80
2013,05,03,13,41,16.80
2013,05,03,13,42,16.80
2013,05,03,13,43,17.00
2013,05,03,13,44,17.10
2013,05,03,13,45,17.10
2013,05,03,13,46,17.20
2013,05,03,13,47,17.30
2013,05,03,13,48,17.30
2013,05,03,13,49,17.40
2013,05,03,13,50,17.60
2013,05,03,13,51,17.70
2013,05,03,13,52,17.80
2013,05,03,13,53,17.80
2013,05,03,13,54,17.80
2013,05,03,13,55,17.90
2013,05,03,13,56,18.00
2013,05,03,13,57,18.10
2013,05,03,13,58,18.30
2013,05,03,13,59,18.50
2013,05,03,14,00,18.70
2013,05,03,14,01,18.80
2013,05,03,14,02,19.00
2013,05,03,14,03,19.00
2013,05,03,14,04,18.90
2013,05,03,14,05,18.90
2013,05,03,14,06,18.90
2013,05,03,14,07,19.00
2013,05,03,14,08,19.10
2013,05,03,14,09,19.20
2013,05,03,14,10,19.30
2013,05,03,14,11,19.40
2013,05,03,14,12,19.50
2013,05,03,14,13,19.50
2013,05,03,14,14,19.50
2013,05,03,14,15,19.50
2013,05,03,14,16,19.50
2013,05,03,14,17,19.50
2013,05,03,14,18,19.60
2013,05,03,14,19,19.60
2013,05,03,14,20,19.70
2013,05,03,14,21,19.80
2013,05,03,14,22,19.80
2013,05,03,14,23,19.80
2013,05,03,14,24,19.70
2013,05,03,14,25,19.60
2013,05,03,14,26,19.50
2013,05,03,14,27,19.50
2013,05,03,14,28,19.60
2013,05,03,14,29,19.60
2013,05,03,14,30,19.40
2013,05,03,14,31,19.30
2013,05,03,14,32,19.20
2013,05,03,14,33,19.30
2013,05,03,14,34,19.30
2013,05,03,14,35,19.40
2013,05,03,14,36,19.60
2013,05,03,14,37,19.70
2013,05,03,14,38,19.90
2013,05,03,14,39,20.00
2013,05,03,14,40,20.10
2013,05,03,14,41,20.10
2013,05,03,14,42,20.00
2013,05,03,14,43,19.90
2013,05,03,14,44,19.90
2013,05,03,14,45,19.90
2013,05,03,14,46,20.10
2013,05,03,14,47,20.20
2013,05,03,14,48,20.10
2013,05,03,14,49,20.00
2013,05,03,14,50,20.00
2013,05,03,14,51,20.10
2013,05,03,14,52,20.20
2013,05,03,14,53,20.10
2013,05,03,14,54,20.10
2013,05,03,14,55,20.10
2013,05,03,14,56,20.00
2013,05,03,14,57,19.90
2013,05,03,14,58,19.90
2013,05,03,14,59,19.90
2013,05,03,15,00,19.90
2013,05,03,15,01,19.90
2013,05,03,15,02,20.00
2013,05,03,15,03,20.10
2013,05,03,15,04,20.20
2013,05,03,15,05,20.30
2013,05,03,15,06,20.30
2013,05,03,15,07,20.40
2013,05,03,15,08,20.50
2013,05,03,15,09,20.50
2013,05,03,15,10,20.70
2013,05,03,15,11,20.80
2013,05,03,15,12,20.70
2013,05,03,15,13,20.70
2013,05,03,15,14,20.60
2013,05,03,15,15,20.60
2013,05,03,15,16,20.60
2013,05,03,15,17,20.70
2013,05,03,15,18,20.80
2013,05,03,15,19,20.80
2013,05,03,15,20,20.60
2013,05,03,15,21,20.40
2013,05,03,15,22,20.30
2013,05,03,15,23,20.20
2013,05,03,15,24,20.10
2013,05,03,15,25,20.00
2013,05,03,15,26,19.90
2013,05,03,15,27,19.90
2013,05,03,15,28,20.00
2013,05,03,15,29,20.10
2013,05,03,15,30,20.00
2013,05,03,15,31,19.90
2013,05,03,15,32,19.90
2013,05,03,15,33,19.90
2013,05,03,15,34,19.80
2013,05,03,15,35,19.80
2013,05,03,15,36,19.80
2013,05,03,15,37,19.80
2013,05,03,15,38,19.80
2013,05,03,15,39,19.90
2013,05,03,15,40,20.00
2013,05,03,15,41,20.20
2013,05,03,15,42,20.30
2013,05,03,15,43,20.30
2013,05,03,15,44,20.30
2013,05,03,15,45,20.30
2013,05,03,15,46,20.20
2013,05,03,15,47,20.20
2013,05,03,15,48,20.20
2013,05,03,15,49,20.20
2013,05,03,15,50,20.20
2013,05,03,15,51,20.20
2013,05,03,15,52,20.20
2013,05,03,15,53,20.20
2013,05,03,15,54,20.20
2013,05,03,15,55,20.10
2013,05,03,15,56,20.00
2013,05,03,15,57,19.90
2013,05,03,15,58,19.80
2013,05,03,15,59,19.80
2013,05,03,16,00,19.70
2013,05,03,16,01,19.60
2013,05,03,16,02,19.60
2013,05,03,16,03,19.70
2013,05,03,16,04,19.70
2013,05,03,16,05,19.70
2013,05,03,16,06,19.60
2013,05,03,16,07,19.50
2013,05,03,16,08,19.30
2013,05,03,16,09,19.10
2013,05,03,16,10,19.10
2013,05,03,16,11,18.90
2013,05,03,16,12,18.70
2013,05,03,16,13,18.60
2013,05,03,16,14,18.60
2013,05,03,16,15,18.60
2013,05,03,16,16,18.60
2013,05,03,16,17,18.50
2013,05,03,16,18,18.30
2013,05,03,16,19,18.20
2013,05,03,16,20,18.20
2013,05,03,16,21,18.10
2013,05,03,16,22,18.10
2013,05,03,16,23,18.00
2013,05,03,16,24,17.90
2013,05,03,16,25,17.90
2013,05,03,16,26,17.80
2013,05,03,16,27,17.80
2013,05,03,16,28,17.80
2013,05,03,16,29,17.80
2013,05,03,16,30,18.00
2013,05,03,16,31,18.10
2013,05,03,16,32,18.20
2013,05,03,16,33,18.20
2013,05,03,16,34,18.20
2013,05,03,16,35,18.10
2013,05,03,16,36,18.10
2013,05,03,16,37,18.10
2013,05,03,16,38,18.10
2013,05,03,16,39,18.20
2013,05,03,16,40,18.20
2013,05,03,16,41,18.20
2013,05,03,16,42,18.20
2013,05,03,16,43,18.20
2013,05,03,16,44,18.20
2013,05,03,16,45,18.20
2013,05,03,16,46,18.20
2013,05,03,16,47,18.20
2013,05,03,16,48,18.20
2013,05,03,16,49,18.20
2013,05,03,16,50,18.20
2013,05,03,16,51,18.20
2013,05,03,16,52,18.20
2013,05,03,16,53,18.20
2013,05,03,16,54,18.20
2013,05,03,16,55,18.20
2013,05,03,16,56,18.20
2013,05,03,16,57,18.20
2013,05,03,16,58,18.20
2013,05,03,16,59,18.20
2013,05,03,17,00,18.20
2013,05,03,17,01,18.30
2013,05,03,17,02,18.30
2013,05,03,17,03,18.50
2013,05,03,17,04,18.50
2013,05,03,17,05,18.60
2013,05,03,17,06,18.70
2013,05,03,17,07,18.80
2013,05,03,17,08,18.80
2013,05,03,17,09,18.90
2013,05,03,17,10,18.90
2013,05,03,17,11,18.90
2013,05,03,17,12,19.00
2013,05,03,17,13,19.10
2013,05,03,17,14,19.20
2013,05,03,17,15,19.30
2013,05,03,17,16,19.50
2013,05,03,17,17,19.60
2013,05,03,17,18,19.70
2013,05,03,17,19,19.90
2013,05,03,17,20,19.90
2013,05,03,17,21,19.90
2013,05,03,17,22,20.00
2013,05,03,17,23,20.10
2013,05,03,17,24,20.10
2013,05,03,17,25,20.20
2013,05,03,17,26,20.10
2013,05,03,17,27,20.10
2013,05,03,17,28,20.10
2013,05,03,17,29,20.10
2013,05,03,17,30,20.00
2013,05,03,17,31,19.90
2013,05,03,17,32,19.90
2013,05,03,17,33,19.90
2013,05,03,17,34,19.80
2013,05,03,17,35,19.80
2013,05,03,17,36,19.80
2013,05,03,17,37,19.90
2013,05,03,17,38,19.90
2013,05,03,17,39,20.00